Weather in Preili

Latvia     56˚17′39″N   26˚43′28″E
temp.,
°C
wind,
m/s
gust,
m/s
humid.,
%
clouds,
%
prec.,
mm/h
press.,
hPa
HPBL,
m
28 november, sat
sat2823:00−1˚n479294 0.1 1015439
02:00−1˚n479291 0.1 1016407
05:00nnw4794100 0.5 1017389
08:00+1˚nne5996100 0.9 1018544
11:00+1˚ne5996100 0.5 1019551
14:00+1˚ne698899 0.7 1020745
17:00+1˚ne51096100 0.1 1021566
20:00−1˚e388794 0.3 1023474
29 november, sun
sun2923:00ene3683100 0.0 1024401
02:00−1˚ene379497 0.0 1025300
05:00ene479090 0.0 1024487
08:00−1˚ne589095 0.0 1024441
11:00ne598798 0.0 1023695
14:00ne599599 0.6 1022600
17:00ne4891100 0.5 1021590
20:00−1˚ne369696 0.6 1021278
30 november, mon
mon3023:00−1˚ne239798 0.1 1021169
02:00−1˚se249797 0.3 1021185
05:00sse239199 0.0 1021301
08:00−1˚se2597100 0.1 1023238
11:00sse359199 0.2 1023414
14:00s358896 0.2 1023501
17:00−1˚s3696100 0.2 1022318
20:00−1˚sw2597100 0.9 1023277
1 december, tue
tue123:00−2˚ssw369399 0.1 1023372
02:00−2˚ssw4888100 0.1 1023571
05:00−2˚ssw489396 0.1 1023445
08:00−1˚ssw588896 0.1 1024559
11:00−1˚ssw598571 0.0 1025491
14:00ssw488442 0.0 1026517
17:00−3˚s389326 0.0 1027235
20:00−3˚s379452 0.0 1028240
2 december, wed
wed223:00−3˚s379298 0.0 1029317
02:00−2˚s378999 0.0 1029328
05:00−3˚s3690100 0.0 1029269
08:00−3˚sse3690100 0.0 1029273
11:00−2˚s4684100 0.0 1029397
14:00−2˚sse3682100 0.0 1028446
17:00−3˚sse3691100 0.0 1028236
20:00−3˚sse3690100 0.0 1028259